Home > Weather > Kilgore > Past weeks

Flag for U.S.A. Weather for the Past 2 Weeks in Kilgore, Texas, U.S.A.

Now
35 °F

Clear.


Feels Like: 28 °F
Forecast: 34 / 55 °F
Wind: 9 mph from Northwest

Location: Gregg County Airport

Current Time: Feb 9, 2016 at 6:59:41 AM

Latest Report: Feb 9, 2016 at 5:53 AM


Visibility: 10 mi

Pressure: 30.24 "Hg

Humidity: 48%

Dew point: 17 °F

Location of KilgoreLocation

Historic Weather in Kilgore — Graph

°F

Kilgore Temperature Yesterday

Maximum temperature yesterday: 54 °F (at 12:53 PM)
Minimum temperature yesterday: 42 °F (at 11:53 PM)
Average temperature yesterday: 47 °F

High & Low Weather Summary for the Past Weeks

 TemperatureHumidityPressure
High77 °F (Jan 31, 1:53 PM)100% (Feb 7, 3:53 AM)30.51 "Hg (Feb 7, 3:53 AM)
Low24 °F (Feb 5, 6:53 AM)16% (Feb 2, 2:53 PM)29.58 "Hg (Feb 1, 11:53 PM)
Average51 °F58%30.08 "Hg
* Reported Jan 25 4:53 AM — Feb 9 4:53 AM, Kilgore, Weather by CustomWeather, © 2016

Note: Actual official high and low records may vary slightly from our data, if they occured in-between our weather recording intervals... More about our weather records

Advertising

Kilgore Weather History for the Previous 24 Hours

 ConditionsComfort  
Time TempWeatherWind HumidityBarometerVisibility
4:53 AM
Tue, Feb 9
36 °FClear.8 mph46%30.24 "Hg10 mi
3:53 AM37 °FClear.9 mph44%30.22 "Hg10 mi
2:53 AM38 °FClear.9 mph43%30.22 "Hg10 mi
1:53 AM40 °FClear.12 mph38%30.22 "Hg10 mi
12:53 AM41 °FClear.12 mph35%30.21 "Hg10 mi
11:53 PM
Mon, Feb 8
42 °FClear.14 mph32%30.20 "Hg10 mi
10:53 PM43 °FClear.12 mph29%30.21 "Hg10 mi
9:53 PM44 °FClear.12 mph28%30.21 "Hg10 mi
8:53 PM45 °FClear.10 mph27%30.19 "Hg10 mi
7:53 PM46 °FClear.12 mph25%30.19 "Hg10 mi
6:53 PM48 °FClear.12 mph22%30.18 "Hg10 mi
5:53 PM50 °FSunny.17 mph20%30.17 "Hg10 mi
4:53 PM52 °FSunny.21 mph18%30.16 "Hg10 mi
3:53 PM53 °FSunny.24 mph18%30.16 "Hg10 mi
1:53 PM54 °FSunny.30 mph18%30.18 "Hg10 mi
12:53 PM54 °FSunny.22 mph20%30.20 "Hg10 mi
11:53 AM51 °FSunny.24 mph24%30.24 "Hg10 mi
10:53 AM51 °FSunny.21 mph27%30.26 "Hg10 mi
9:53 AM49 °FSunny.23 mph29%30.25 "Hg10 mi
8:53 AM47 °FSunny.16 mph33%30.24 "Hg10 mi
7:53 AM45 °FSunny.18 mph35%30.24 "Hg10 mi
6:53 AM43 °FClear.16 mph40%30.22 "Hg10 mi
Weather by CustomWeather, © 2016

See weather overviewHow to use our weather pages